Orbital Elements at Epoch 2459200.5 (2020-Dec-17.0) TDB
Reference: JPL 17 (heliocentric ecliptic J2000)
Element | Value | Uncertainty (1-sigma) | Units |
e | .1193487954094783 | 3.1946e-08 | |
a | 2.389427159049895 | 1.1807e-08 | au |
q | 2.104251905898598 | 7.9096e-08 | au |
i | .9397022409568947 | 4.9584e-06 | deg |
node | 182.0223451618608 | 0.00020802 | deg |
peri | 279.7739955405745 | 0.00020985 | deg |
M | 279.6064810363138 | 3.1185e-05 | deg |
tp | 2459501.771228639665 (2021-Oct-14.27122864) | 0.00011844 | TDB |
period | 1349.084400189894 3.69 | 9.9991e-06 2.738e-08 | d yr |
n | .2668476486343828 | 1.9778e-09 | deg/d |
Q | 2.674602412201192 | 1.3216e-08 | au |
|
| | Orbit Determination Parameters
Additional Information
|